Starlink 2257

operational
NORAD ID: 47787 Int'l Des: 2021-018 Owner: SPXS Country: US Constellation: starlink
LEOCIRCULARSTARLINK_TYPE

关于 Starlink 2257

正在加载描述...

实时位置

正在加载3D地球...

即将过境

高度历史

Altitude vs Time

uPlot chart will show altitude changes over time

两行轨道根数

1 47787U 21018A 25303.19642784 .00001694 00000-0 13255-3 0 9998
2 47787 53.0540 117.4258 0001082 90.3377 269.7736 15.06407099256925
Epoch: Oct 30, 2025 • Age: 12 hours

当前状态

高度 547.9 km
速度 7.59 km/s
星下点 26.62°N, 13.62°W
发射日期 Mar 11, 2021
运行时间 4.6 years
类型 internet

技术详情

分类 Payload
质量 260.00 kg
干质量 248.00 kg
总质量 260.00 kg
长度 0.20 m
直径 2.80 m
跨度 9.00 m
形状 Box + pan
制造商 SPXS
平台类型 Starlink
阶段状态 In Orbit
所有者/国家 SPXS/US

大型星座

Loading constellations...